Atlanta Fulton, GA

11:23 PM EDT on July 23, 2017 (GMT -0400)
Fulton County-Brown

Weather History for KFTY - February, 2014

Change the Weather History Date:

Tuesday, February 18, 2014

  Actual Average Record
Temperature  
Mean Temperature 56 °F 47 °F  
Max Temperature 72 °F 58 °F 72 °F (2014)
Min Temperature 40 °F 36 °F 22 °F (2015)
Degree Days  
Heating Degree Days 9 18  
Month to date heating degree days 388 355  
Since 1 July heating degree days 2422 2171  
Growing Degree Days 6 (Base 50)    
Moisture  
Dew Point 46 °F    
Average Humidity 65    
Maximum Humidity 93    
Minimum Humidity 37    
Precipitation  
Precipitation T in 0.18 in 1.53 in (1990)
Month to date precipitation 2.29 2.98  
Year to date precipitation 4.89 7.25  
Snow  
Snow 0.00 in - - ()
Month to date snowfall 0.0  
Since 1 July snowfall T  
Snow Depth 0.00 in    
Sea Level Pressure  
Sea Level Pressure 30.14 in    
Wind  
Wind Speed 4 mph (SSE)    
Max Wind Speed 12 mph    
Max Gust Speed 16 mph    
Visibility 10 miles    
Events Rain    
T = Trace of Precipitation, MM = Missing Value Source: NWS Daily Summary

Daily Weather History Graph

Daily Weather History Graph

Search for Another Location

Airport or City:

Trip Planner

Search our weather history database for the weather conditions in past years. The results will help you decide how hot, cold, wet, or windy it might be!

Date:

Astronomy

Feb. 18, 2014 Rise Set
Actual Time 7:19 AM EST 6:25 PM EST
Civil Twilight 6:53 AM EST 6:50 PM EST
Nautical Twilight 6:24 AM EST 7:19 PM EST
Astronomical Twilight 5:55 AM EST 7:48 PM EST
Moon 10:04 PM EST (2/18) 9:02 AM EST (2/18)
Length of Visible Light 11h 56m
Length of Day
11h 05m
Waning Gibbous, 87% of the Moon is Illuminated
Feb 18
Waning Gibbous
Feb 22
Last Quarter
Mar 1
New
Mar 8
First Quarter
Mar 16
Full

Hourly Weather History & Observations

Time (EST) Temp. Windchill Dew Point Humidity Pressure Visibility Wind Dir Wind Speed Gust Speed Precip Events Conditions
12:14 AM 55.4 °F - 51.8 °F 88% 30.13 in 10.0 mi NE 4.6 mph - N/A   Overcast
12:53 AM 51.1 °F - 48.0 °F 89% 30.13 in 10.0 mi NNE 8.1 mph - N/A   Mostly Cloudy
1:53 AM 46.9 °F - 44.1 °F 90% 30.14 in 10.0 mi NE 5.8 mph - N/A   Mostly Cloudy
2:03 AM 46.4 °F 43.5 °F 42.8 °F 87% 30.14 in 10.0 mi ENE 5.8 mph - N/A   Mostly Cloudy
2:10 AM 46.4 °F 44.3 °F 42.8 °F 87% 30.14 in 10.0 mi NE 4.6 mph - N/A   Partly Cloudy
2:29 AM 46.4 °F 42.9 °F 42.8 °F 87% 30.14 in 10.0 mi NE 6.9 mph - N/A   Mostly Cloudy
2:53 AM 45.0 °F 43.5 °F 41.0 °F 86% 30.14 in 10.0 mi NE 3.5 mph - N/A   Mostly Cloudy
3:01 AM 44.6 °F 43.1 °F 41.0 °F 87% 30.14 in 10.0 mi NE 3.5 mph - N/A   Partly Cloudy
3:53 AM 42.1 °F - 39.9 °F 92% 30.15 in 10.0 mi Calm Calm - N/A   Clear
4:17 AM 44.6 °F - 41.0 °F 87% 30.16 in 10.0 mi Calm Calm - N/A   Mostly Cloudy
4:53 AM 45.0 °F 43.5 °F 42.1 °F 90% 30.16 in 10.0 mi ENE 3.5 mph - N/A   Overcast
5:17 AM 42.8 °F - 41.0 °F 93% 30.16 in 10.0 mi Calm Calm - N/A   Scattered Clouds
5:53 AM 45.0 °F - 41.0 °F 86% 30.18 in 10.0 mi Calm Calm - N/A   Overcast
6:48 AM 44.6 °F - 41.0 °F 87% 30.19 in 10.0 mi Calm Calm - N/A   Scattered Clouds
6:53 AM 44.1 °F - 41.0 °F 89% 30.19 in 10.0 mi Calm Calm - N/A   Partly Cloudy
7:53 AM 41.0 °F - 39.9 °F 96% 30.20 in 7.0 mi Calm Calm - N/A   Clear
8:53 AM 46.9 °F - 43.0 °F 86% 30.22 in 9.0 mi Calm Calm - N/A   Clear
9:53 AM 53.1 °F - 39.9 °F 61% 30.23 in 10.0 mi Calm Calm - N/A   Clear
10:53 AM 57.0 °F - 37.9 °F 49% 30.22 in 10.0 mi Calm Calm - N/A   Clear
11:53 AM 62.1 °F - 39.0 °F 43% 30.21 in 10.0 mi Calm Calm - N/A   Clear
12:53 PM 66.0 °F - 39.9 °F 38% 30.18 in 10.0 mi West 5.8 mph - N/A   Clear
1:53 PM 69.1 °F - 42.1 °F 38% 30.15 in 10.0 mi Variable 4.6 mph - N/A   Clear
2:53 PM 70.0 °F - 42.1 °F 36% 30.12 in 10.0 mi Variable 5.8 mph - N/A   Clear
3:53 PM 71.1 °F - 44.1 °F 38% 30.11 in 10.0 mi South 9.2 mph - N/A   Partly Cloudy
4:53 PM 70.0 °F - 46.9 °F 44% 30.10 in 10.0 mi South 5.8 mph - N/A   Overcast
5:53 PM 69.1 °F - 51.1 °F 53% 30.09 in 10.0 mi South 8.1 mph - N/A   Overcast
6:53 PM 66.9 °F - 52.0 °F 59% 30.09 in 10.0 mi South 6.9 mph - N/A   Overcast
7:53 PM 64.0 °F - 55.0 °F 73% 30.10 in 10.0 mi SSW 6.9 mph - 0.00 in Rain Light Rain
8:20 PM 62.6 °F - 57.2 °F 82% 30.10 in 9.0 mi South 5.8 mph - 0.00 in Rain Light Rain
8:53 PM 61.0 °F - 57.9 °F 90% 30.09 in 9.0 mi South 4.6 mph - 0.00 in   Mostly Cloudy
9:43 PM 60.8 °F - 57.2 °F 88% 30.08 in 9.0 mi SW 5.8 mph - N/A   Overcast
9:53 PM 61.0 °F - 57.0 °F 87% 30.06 in 9.0 mi SSW 5.8 mph - N/A   Overcast
10:42 PM 62.6 °F - 57.2 °F 82% 30.07 in 9.0 mi SSW 3.5 mph - N/A   Overcast
10:53 PM 61.0 °F - 57.0 °F 87% 30.06 in 8.0 mi SSW 3.5 mph - N/A   Overcast
11:53 PM 62.1 °F - 57.9 °F 86% 30.05 in 10.0 mi SSW 8.1 mph - N/A   Overcast